When you browse on this site, cookies collect data to enhance your experience and personalize the content and advertising you see.
Visit our Privacy Policy to learn more. By continuing to use the site, you agree to this use of cookies and data.
  • In Romania
  • List of Countries
  • For 7 days
  • Water Temperature
  • Satellite Maps
  • Weather Map
  • Weather Widgets
  • user-avatar
    Login

    Hourly Weather Førde

    Today, 19 July, Friday

    Time Temperature Precipitation Wind Pressure Humidity
    00:00 +12°C° 0.7 mm 1 mps 703 mmHg 93%
    01:00 +12°C° 1 mm 1 mps 703 mmHg 94%
    02:00 +11°C° 1 mm 1 mps 703 mmHg 95%
    03:00 +11°C° 1 mm 1 mps 703 mmHg 96%
    04:00 +12°C° 0.5 mm 1 mps 704 mmHg 93%
    05:00 +12°C° 0.5 mm 1 mps 704 mmHg 90%
    06:00 +13°C° 0.5 mm 1 mps 704 mmHg 88%
    07:00 +13°C° 0.6 mm 1 mps 704 mmHg 83%
    08:00 +14°C° 0.6 mm 2 mps 705 mmHg 79%
    09:00 +14°C° 0.6 mm 2 mps 705 mmHg 75%
    10:00 +14°C° 0.3 mm 3 mps 705 mmHg 70%
    11:00 +16°C° 0.3 mm 3 mps 705 mmHg 65%
    12:00 +16°C° 0.3 mm 3 mps 705 mmHg 60%
    13:00 +16°C° 0.3 mm 3 mps 706 mmHg 63%
    14:00 +16°C° 0.3 mm 3 mps 706 mmHg 65%
    15:00 +16°C° 0.3 mm 3 mps 706 mmHg 68%
    16:00 +16°C° 0.2 mm 3 mps 706 mmHg 69%
    17:00 +15°C° 0.2 mm 2 mps 706 mmHg 69%
    18:00 +15°C° 0.2 mm 2 mps 706 mmHg 70%
    19:00 +13°C° 0 mm 1 mps 706 mmHg 77%
    20:00 +11°C° 0 mm 1 mps 706 mmHg 83%
    21:00 +9°C° 0 mm 0 mps 705 mmHg 90%
    22:00 +9°C° 0 mm 0 mps 705 mmHg 90%
    23:00 +8°C° 0 mm 0 mps 705 mmHg 90%

    Tomorrow, 20 July, Saturday

    Time Temperature Precipitation Wind Pressure Humidity
    00:00 +8°C° 0 mm 0 mps 705 mmHg 90%
    01:00 +8°C° 0 mm 0 mps 705 mmHg 89%
    02:00 +9°C° 0 mm 0 mps 705 mmHg 89%
    03:00 +9°C° 0 mm 0 mps 705 mmHg 88%
    04:00 +10°C° 0 mm 0 mps 705 mmHg 85%
    05:00 +11°C° 0 mm 0 mps 705 mmHg 81%
    06:00 +12°C° 0 mm 0 mps 705 mmHg 77%
    07:00 +14°C° 0 mm 1 mps 705 mmHg 75%
    08:00 +14°C° 0 mm 1 mps 705 mmHg 73%
    09:00 +15°C° 0 mm 1 mps 705 mmHg 71%
    10:00 +16°C° 0.1 mm 1 mps 705 mmHg 69%
    11:00 +16°C° 0.1 mm 1 mps 705 mmHg 66%
    12:00 +17°C° 0.1 mm 2 mps 705 mmHg 64%
    13:00 +16°C° 1.4 mm 2 mps 704 mmHg 74%
    14:00 +14°C° 1.4 mm 2 mps 704 mmHg 83%
    15:00 +13°C° 1.4 mm 2 mps 704 mmHg 93%
    16:00 +13°C° 0.3 mm 2 mps 704 mmHg 93%
    17:00 +13°C° 0.3 mm 1 mps 704 mmHg 93%
    18:00 +13°C° 0.3 mm 1 mps 704 mmHg 93%
    19:00 +13°C° 0.2 mm 1 mps 704 mmHg 93%
    20:00 +12°C° 0.2 mm 1 mps 704 mmHg 93%
    21:00 +12°C° 0.2 mm 1 mps 705 mmHg 93%
    22:00 +12°C° 0.2 mm 1 mps 705 mmHg 93%
    23:00 +12°C° 0.2 mm 1 mps 704 mmHg 94%

    Day after tomorrow, 21 July, Sunday

    Time Temperature Precipitation Wind Pressure Humidity
    00:00 +12°C° 0.2 mm 1 mps 704 mmHg 94%
    01:00 +12°C° 0.1 mm 1 mps 704 mmHg 94%
    02:00 +12°C° 0.1 mm 1 mps 704 mmHg 94%
    03:00 +12°C° 0.1 mm 1 mps 704 mmHg 93%
    04:00 +12°C° 0.2 mm 1 mps 704 mmHg 94%
    05:00 +11°C° 0.2 mm 0 mps 704 mmHg 94%
    06:00 +11°C° 0.2 mm 0 mps 704 mmHg 94%
    07:00 +11°C° 1 mm 0 mps 705 mmHg 95%
    08:00 +11°C° 1 mm 0 mps 705 mmHg 96%
    09:00 +12°C° 1 mm 1 mps 705 mmHg 98%
    10:00 +12°C° 0.9 mm 1 mps 706 mmHg 97%
    11:00 +12°C° 0.9 mm 1 mps 706 mmHg 97%
    12:00 +12°C° 0.9 mm 2 mps 706 mmHg 97%
    13:00 +12°C° 0.2 mm 2 mps 707 mmHg 93%
    14:00 +12°C° 0.2 mm 2 mps 708 mmHg 89%
    15:00 +13°C° 0.2 mm 1 mps 708 mmHg 85%
    16:00 +13°C° 0.1 mm 1 mps 709 mmHg 81%
    17:00 +13°C° 0.1 mm 1 mps 709 mmHg 78%
    18:00 +13°C° 0.1 mm 1 mps 709 mmHg 74%
    19:00 +11°C° 0 mm 1 mps 709 mmHg 80%
    20:00 +10°C° 0 mm 1 mps 709 mmHg 86%
    21:00 +8°C° 0 mm 1 mps 710 mmHg 92%
    22:00 +8°C° 0 mm 1 mps 710 mmHg 92%
    23:00 +8°C° 0 mm 1 mps 710 mmHg 92%

    22 July, Monday

    Time Temperature Precipitation Wind Pressure Humidity
    00:00 +7°C° 0 mm 1 mps 710 mmHg 92%
    01:00 +7°C° 0 mm 1 mps 710 mmHg 91%
    02:00 +7°C° 0 mm 1 mps 710 mmHg 91%
    03:00 +7°C° 0 mm 1 mps 710 mmHg 91%
    04:00 +8°C° 0 mm 2 mps 710 mmHg 85%
    05:00 +9°C° 0 mm 2 mps 710 mmHg 80%
    06:00 +12°C° 0 mm 2 mps 710 mmHg 75%
    07:00 +13°C° 0 mm 2 mps 710 mmHg 70%
    08:00 +14°C° 0 mm 2 mps 710 mmHg 66%
    09:00 +15°C° 0 mm 2 mps 710 mmHg 62%
    10:00 +15°C° 0 mm 2 mps 710 mmHg 66%
    11:00 +14°C° 0 mm 2 mps 710 mmHg 70%
    12:00 +14°C° 0 mm 2 mps 709 mmHg 73%
    13:00 +14°C° 0.3 mm 2 mps 709 mmHg 78%
    14:00 +13°C° 0.3 mm 2 mps 709 mmHg 82%
    15:00 +13°C° 0.3 mm 2 mps 709 mmHg 86%
    16:00 +13°C° 0.8 mm 2 mps 709 mmHg 89%
    17:00 +12°C° 0.8 mm 2 mps 709 mmHg 91%
    18:00 +12°C° 0.8 mm 2 mps 709 mmHg 94%
    19:00 +12°C° 1.2 mm 2 mps 709 mmHg 95%
    20:00 +12°C° 1.2 mm 2 mps 709 mmHg 95%
    21:00 +12°C° 1.2 mm 2 mps 710 mmHg 96%
    22:00 +12°C° 2.6 mm 2 mps 710 mmHg 97%
    23:00 +12°C° 2.6 mm 2 mps 710 mmHg 97%

    23 July, Tuesday

    Time Temperature Precipitation Wind Pressure Humidity
    00:00 +13°C° 2.6 mm 2 mps 710 mmHg 97%
    01:00 +13°C° 0.8 mm 2 mps 710 mmHg 97%
    02:00 +13°C° 0.8 mm 2 mps 710 mmHg 96%
    03:00 +13°C° 0.8 mm 2 mps 710 mmHg 96%
    04:00 +14°C° 0 mm 2 mps 710 mmHg 94%
    05:00 +14°C° 0 mm 2 mps 710 mmHg 93%
    06:00 +15°C° 0 mm 2 mps 711 mmHg 91%
    07:00 +16°C° 0 mm 3 mps 711 mmHg 87%
    08:00 +17°C° 0 mm 3 mps 711 mmHg 83%
    09:00 +17°C° 0 mm 3 mps 711 mmHg 79%
    10:00 +18°C° 0 mm 4 mps 712 mmHg 75%
    11:00 +19°C° 0 mm 4 mps 712 mmHg 71%
    12:00 +20°C° 0 mm 4 mps 712 mmHg 67%
    13:00 +20°C° 0 mm 4 mps 712 mmHg 65%
    14:00 +21°C° 0 mm 4 mps 712 mmHg 63%
    15:00 +21°C° 0 mm 5 mps 712 mmHg 61%
    16:00 +20°C° 0 mm 4 mps 712 mmHg 64%
    17:00 +20°C° 0 mm 3 mps 712 mmHg 67%
    18:00 +20°C° 0 mm 3 mps 712 mmHg 69%
    19:00 +18°C° 0 mm 2 mps 712 mmHg 77%
    20:00 +16°C° 0 mm 2 mps 712 mmHg 85%
    21:00 +14°C° 0 mm 2 mps 711 mmHg 92%
    22:00 +14°C° 0 mm 2 mps 712 mmHg 93%
    23:00 +13°C° 0 mm 2 mps 712 mmHg 94%

    24 July, Wednesday

    Time Temperature Precipitation Wind Pressure Humidity
    00:00 +13°C° 0 mm 1 mps 712 mmHg 95%
    01:00 +12°C° 0 mm 1 mps 712 mmHg 94%
    02:00 +12°C° 0 mm 1 mps 711 mmHg 94%
    03:00 +12°C° 0 mm 1 mps 711 mmHg 93%
    04:00 +14°C° 0 mm 1 mps 711 mmHg 87%
    05:00 +15°C° 0 mm 1 mps 712 mmHg 81%
    06:00 +18°C° 0 mm 1 mps 712 mmHg 75%
    07:00 +19°C° 0 mm 1 mps 712 mmHg 67%
    08:00 +21°C° 0 mm 1 mps 712 mmHg 60%
    09:00 +22°C° 0 mm 1 mps 712 mmHg 52%
    10:00 +23°C° 0 mm 1 mps 712 mmHg 51%
    11:00 +24°C° 0 mm 1 mps 712 mmHg 50%
    12:00 +25°C° 0 mm 2 mps 712 mmHg 49%
    13:00 +24°C° 0 mm 1 mps 712 mmHg 53%
    14:00 +23°C° 0 mm 1 mps 712 mmHg 57%
    15:00 +23°C° 0 mm 1 mps 711 mmHg 62%
    16:00 +23°C° 0 mm 1 mps 711 mmHg 62%
    17:00 +23°C° 0 mm 1 mps 711 mmHg 61%
    18:00 +23°C° 0 mm 1 mps 711 mmHg 61%
    19:00 +21°C° 0 mm 1 mps 711 mmHg 67%
    20:00 +19°C° 0 mm 1 mps 711 mmHg 73%
    21:00 +18°C° 0 mm 1 mps 710 mmHg 79%
    22:00 +18°C° 0 mm 1 mps 710 mmHg 78%
    23:00 +16°C° 0 mm 1 mps 710 mmHg 77%
    Show more